• en France
  • Liste des pays
  • À 7 jours
  • Température de l'eau
  • Carte satellitaire
  • Carte météo
  • Widgets météo
  • user-avatar
    Se connecter

    Météo par heure à Zarya

    Ce jour, 21 Juillet, Samedi

    Heure Température Précipitation Vent Pression Humidité
    00:00 +20°C° 0,1 mm 2 m/s 735 mmHg 92%
    01:00 +19°C° 0,1 mm 2 m/s 735 mmHg 92%
    02:00 +19°C° 0,1 mm 2 m/s 735 mmHg 93%
    03:00 +19°C° 0 mm 2 m/s 735 mmHg 94%
    04:00 +19°C° 0,2 mm 2 m/s 735 mmHg 94%
    05:00 +20°C° 0,2 mm 2 m/s 735 mmHg 94%
    06:00 +20°C° 0,2 mm 2 m/s 735 mmHg 94%
    07:00 +21°C° 0,4 mm 3 m/s 735 mmHg 91%
    08:00 +22°C° 0,4 mm 3 m/s 735 mmHg 88%
    09:00 +24°C° 0,4 mm 3 m/s 735 mmHg 85%
    10:00 +25°C° 1,1 mm 4 m/s 735 mmHg 81%
    11:00 +26°C° 1,1 mm 4 m/s 735 mmHg 78%
    12:00 +27°C° 1,1 mm 4 m/s 735 mmHg 74%
    13:00 +27°C° 0,6 mm 5 m/s 735 mmHg 73%
    14:00 +27°C° 0,6 mm 5 m/s 735 mmHg 73%
    15:00 +27°C° 0,6 mm 5 m/s 735 mmHg 72%
    16:00 +27°C° 0,8 mm 5 m/s 735 mmHg 75%
    17:00 +27°C° 0,8 mm 4 m/s 735 mmHg 79%
    18:00 +26°C° 0,8 mm 4 m/s 735 mmHg 82%
    19:00 +25°C° 0,2 mm 4 m/s 735 mmHg 85%
    20:00 +23°C° 0,2 mm 4 m/s 735 mmHg 88%
    21:00 +21°C° 0,2 mm 4 m/s 735 mmHg 91%
    22:00 +21°C° 0 mm 4 m/s 735 mmHg 93%
    23:00 +21°C° 0 mm 4 m/s 735 mmHg 94%

    Demain, 22 Juillet, Dimanche

    Heure Température Précipitation Vent Pression Humidité
    00:00 +20°C° 0 mm 4 m/s 735 mmHg 96%
    01:00 +20°C° 0 mm 4 m/s 735 mmHg 96%
    02:00 +20°C° 0 mm 5 m/s 735 mmHg 96%
    03:00 +20°C° 0 mm 5 m/s 736 mmHg 97%
    04:00 +20°C° 0 mm 5 m/s 736 mmHg 96%
    05:00 +20°C° 0 mm 4 m/s 736 mmHg 96%
    06:00 +19°C° 0 mm 4 m/s 736 mmHg 95%
    07:00 +20°C° 0 mm 5 m/s 736 mmHg 94%
    08:00 +20°C° 0 mm 5 m/s 736 mmHg 93%
    09:00 +20°C° 0 mm 5 m/s 736 mmHg 92%
    10:00 +20°C° 0 mm 5 m/s 736 mmHg 91%
    11:00 +21°C° 0 mm 5 m/s 736 mmHg 90%
    12:00 +21°C° 0 mm 6 m/s 737 mmHg 88%
    13:00 +21°C° 0 mm 6 m/s 737 mmHg 87%
    14:00 +21°C° 0 mm 6 m/s 737 mmHg 85%
    15:00 +22°C° 0 mm 6 m/s 737 mmHg 84%
    16:00 +21°C° 0,1 mm 6 m/s 737 mmHg 85%
    17:00 +21°C° 0,1 mm 6 m/s 737 mmHg 87%
    18:00 +20°C° 0,1 mm 5 m/s 737 mmHg 88%
    19:00 +20°C° 0 mm 5 m/s 737 mmHg 89%
    20:00 +19°C° 0 mm 5 m/s 737 mmHg 89%
    21:00 +19°C° 0 mm 5 m/s 737 mmHg 90%
    22:00 +19°C° 0,1 mm 5 m/s 737 mmHg 91%
    23:00 +19°C° 0,1 mm 5 m/s 737 mmHg 91%

    Après-demain, 23 Juillet, Lundi

    Heure Température Précipitation Vent Pression Humidité
    00:00 +17°C° 0,1 mm 5 m/s 737 mmHg 92%
    01:00 +17°C° 0 mm 5 m/s 737 mmHg 92%
    02:00 +17°C° 0 mm 5 m/s 737 mmHg 93%
    03:00 +17°C° 0 mm 5 m/s 737 mmHg 93%
    04:00 +17°C° 0,1 mm 5 m/s 737 mmHg 93%
    05:00 +17°C° 0,1 mm 5 m/s 737 mmHg 93%
    06:00 +17°C° 0,1 mm 5 m/s 737 mmHg 93%
    07:00 +17°C° 0,1 mm 5 m/s 737 mmHg 92%
    08:00 +17°C° 0,1 mm 6 m/s 737 mmHg 91%
    09:00 +17°C° 0,1 mm 6 m/s 737 mmHg 90%
    10:00 +17°C° 0,1 mm 6 m/s 737 mmHg 90%
    11:00 +19°C° 0,1 mm 6 m/s 737 mmHg 89%
    12:00 +19°C° 0,1 mm 6 m/s 737 mmHg 89%
    13:00 +19°C° 0,1 mm 6 m/s 737 mmHg 88%
    14:00 +19°C° 0,1 mm 6 m/s 737 mmHg 88%
    15:00 +19°C° 0,1 mm 6 m/s 737 mmHg 88%
    16:00 +19°C° 0 mm 6 m/s 737 mmHg 89%
    17:00 +19°C° 0 mm 6 m/s 737 mmHg 89%
    18:00 +19°C° 0 mm 6 m/s 737 mmHg 90%
    19:00 +17°C° 0,6 mm 5 m/s 737 mmHg 91%
    20:00 +17°C° 0,6 mm 5 m/s 737 mmHg 93%
    21:00 +17°C° 0,6 mm 5 m/s 737 mmHg 94%
    22:00 +19°C° 0,6 mm 5 m/s 738 mmHg 95%
    23:00 +19°C° 0,6 mm 5 m/s 738 mmHg 95%

    24 Juillet, Mardi

    Heure Température Précipitation Vent Pression Humidité
    00:00 +19°C° 0,6 mm 4 m/s 738 mmHg 96%
    01:00 +19°C° 0,3 mm 5 m/s 738 mmHg 95%
    02:00 +17°C° 0,3 mm 5 m/s 738 mmHg 95%
    03:00 +17°C° 0,3 mm 5 m/s 738 mmHg 95%
    04:00 +17°C° 0,7 mm 5 m/s 738 mmHg 95%
    05:00 +17°C° 0,7 mm 5 m/s 738 mmHg 95%
    06:00 +16°C° 0,7 mm 5 m/s 738 mmHg 95%
    07:00 +17°C° 0,2 mm 5 m/s 738 mmHg 93%
    08:00 +19°C° 0,2 mm 5 m/s 739 mmHg 92%
    09:00 +20°C° 0,2 mm 5 m/s 739 mmHg 90%
    10:00 +21°C° 0,2 mm 5 m/s 739 mmHg 87%
    11:00 +22°C° 0,2 mm 5 m/s 739 mmHg 84%
    12:00 +25°C° 0,2 mm 5 m/s 739 mmHg 81%
    13:00 +25°C° 0,9 mm 5 m/s 739 mmHg 81%
    14:00 +26°C° 0,9 mm 5 m/s 740 mmHg 80%
    15:00 +26°C° 0,9 mm 5 m/s 740 mmHg 79%
    16:00 +26°C° 0,3 mm 5 m/s 740 mmHg 80%
    17:00 +25°C° 0,3 mm 4 m/s 740 mmHg 81%
    18:00 +25°C° 0,3 mm 4 m/s 740 mmHg 82%
    19:00 +23°C° 0 mm 4 m/s 741 mmHg 85%
    20:00 +22°C° 0 mm 4 m/s 741 mmHg 87%
    21:00 +21°C° 0 mm 4 m/s 741 mmHg 89%
    22:00 +20°C° 0 mm 4 m/s 741 mmHg 89%
    23:00 +20°C° 0 mm 4 m/s 742 mmHg 89%

    25 Juillet, Mercredi

    Heure Température Précipitation Vent Pression Humidité
    00:00 +20°C° 0 mm 4 m/s 742 mmHg 89%
    01:00 +19°C° 0,2 mm 4 m/s 742 mmHg 89%
    02:00 +19°C° 0,2 mm 4 m/s 742 mmHg 89%
    03:00 +19°C° 0,2 mm 4 m/s 742 mmHg 90%
    04:00 +18°C° 0 mm 4 m/s 742 mmHg 88%
    05:00 +18°C° 0 mm 4 m/s 742 mmHg 87%
    06:00 +18°C° 0 mm 4 m/s 743 mmHg 86%
    07:00 +19°C° 0 mm 5 m/s 743 mmHg 82%
    08:00 +20°C° 0 mm 5 m/s 743 mmHg 78%
    09:00 +22°C° 0 mm 6 m/s 743 mmHg 73%
    10:00 +23°C° 0 mm 6 m/s 743 mmHg 70%
    11:00 +24°C° 0 mm 6 m/s 743 mmHg 66%
    12:00 +26°C° 0 mm 7 m/s 743 mmHg 63%
    13:00 +26°C° 0 mm 7 m/s 743 mmHg 62%
    14:00 +26°C° 0 mm 7 m/s 743 mmHg 60%
    15:00 +26°C° 0 mm 7 m/s 743 mmHg 59%
    16:00 +24°C° 0 mm 6 m/s 743 mmHg 63%
    17:00 +23°C° 0 mm 5 m/s 743 mmHg 67%
    18:00 +22°C° 0 mm 4 m/s 744 mmHg 70%
    19:00 +21°C° 0 mm 4 m/s 744 mmHg 72%
    20:00 +21°C° 0 mm 3 m/s 744 mmHg 74%
    21:00 +20°C° 0 mm 3 m/s 744 mmHg 76%
    22:00 +19°C° 0 mm 3 m/s 744 mmHg 79%
    23:00 +19°C° 0 mm 3 m/s 744 mmHg 82%

    26 Juillet, Jeudi

    Heure Température Précipitation Vent Pression Humidité
    00:00 +18°C° 0 mm 3 m/s 744 mmHg 85%
    01:00 +18°C° 0 mm 3 m/s 745 mmHg 86%
    02:00 +18°C° 0 mm 3 m/s 745 mmHg 88%
    03:00 +18°C° 0 mm 4 m/s 745 mmHg 89%
    04:00 +18°C° 0 mm 4 m/s 745 mmHg 87%
    05:00 +18°C° 0 mm 4 m/s 745 mmHg 86%
    06:00 +18°C° 0 mm 4 m/s 745 mmHg 85%
    07:00 +19°C° 0 mm 4 m/s 746 mmHg 79%
    08:00 +21°C° 0 mm 5 m/s 746 mmHg 73%
    09:00 +23°C° 0 mm 5 m/s 746 mmHg 68%
    10:00 +25°C° 0 mm 5 m/s 746 mmHg 65%
    11:00 +26°C° 0 mm 6 m/s 746 mmHg 62%
    12:00 +27°C° 0 mm 6 m/s 746 mmHg 60%
    13:00 +28°C° 0 mm 6 m/s 746 mmHg 59%
    14:00 +28°C° 0 mm 6 m/s 746 mmHg 59%
    15:00 +28°C° 0 mm 6 m/s 746 mmHg 58%
    16:00 +28°C° 0 mm 5 m/s 746 mmHg 63%
    17:00 +28°C° 0 mm 4 m/s 746 mmHg 67%
    18:00 +27°C° 0 mm 3 m/s 746 mmHg 72%
    19:00 +26°C° 0 mm 3 m/s 746 mmHg 75%
    20:00 +24°C° 0 mm 3 m/s 746 mmHg 78%
    21:00 +21°C° 0 mm 3 m/s 746 mmHg 81%
    22:00 +21°C° 0 mm 3 m/s 746 mmHg 82%
    23:00 +20°C° 0 mm 3 m/s 746 mmHg 83%
    Voir plus